Location: Big Meadow
(36.7100°N, 118.8650°W)
Time: 07:54:43
(UTC-08:00)

Daily predictions for brighter satellites

Satellite Brightness Start Highest point End
(mag) Time Altitude Azimuth Time Altitude Azimuth Time Altitude Azimuth
BREEZE-M DEB (TANK) 4.4 17:58:22 10° NW 18:00:30 23° N 18:05:50 10° ENE
Thor Agena Rocket 4.2 17:58:03 10° N 18:03:01 58° WNW 18:07:57 10° SSW
Cosmos 1697 Rocket 3.8 18:04:04 10° NNW 18:09:31 50° WSW 18:14:56 10° S
Cosmos 2360 Rocket 3.9 18:08:25 10° NNE 18:11:13 14° NE 18:14:00 10° E
Cosmos 1980 Rocket 2.4 18:06:57 10° NNW 18:12:39 83° WSW 18:18:21 10° SSE
Cosmos 2151 Rocket 4.3 18:11:06 10° SSE 18:15:05 32° E 18:19:07 10° NNE
METEOR-M 4.3 18:10:27 10° SSE 18:15:36 52° ENE 18:20:47 10° N
Okean 3 4.2 18:12:53 10° NNW 18:17:08 60° W 18:21:19 10° S
Cosmos 1190 Rocket 4.2 18:12:22 10° S 18:17:20 50° ESE 18:22:22 10° NNE
Cosmos 1745 Rocket 4.0 18:11:45 10° S 18:18:04 78° E 18:24:23 10° N
SJ-6B 3.4 18:14:39 10° SE 18:18:22 35° ENE 18:22:01 10° N
NOAA 12 4.2 18:14:08 10° SSE 18:19:18 58° ENE 18:24:33 10° N
SL-8 R/B 3.7 18:14:53 10° NW 18:19:42 68° NNE 18:24:30 10° ESE
ALOS 3.1 18:16:21 10° SE 18:20:17 28° ENE 18:24:14 10° NNE
Meteor 1-18 Rocket 4.3 18:16:37 10° N 18:22:04 55° E 18:27:32 10° SSE
BREEZE-M DEB (TANK) 4.0 18:13:32 10° NW 18:23:16 49° NNE 18:26:11 13° E
Cosmos 1484 Rocket 4.5 18:21:07 10° S 18:24:52 40° W 18:28:37 10° NNW
GEOS 3 Rocket 3.6 18:20:19 10° NE 18:25:35 76° ESE 18:30:52 10° SSW
PSLV R/B 3.8 18:23:01 10° WNW 18:26:05 51° SSW 18:29:09 10° SE
Spot 2 Rocket 4.3 18:25:32 10° SE 18:29:46 28° ENE 18:34:02 10° N
Cosmos 1461 4.0 18:27:32 10° N 18:30:49 24° NE 18:33:04 15° E
Gbstr 26 Del rocket 4.4 18:30:06 10° SSE 18:32:21 15° SE 18:33:19 14° ESE
Cosmos 1386 Rocket 4.4 18:26:32 10° S 18:32:39 76° E 18:38:42 10° N
ASTRO E2 3.9 18:30:24 10° WSW 18:34:07 36° S 18:37:26 12° ESE
Cosmos 2292 Rocket 4.2 18:31:39 10° SSE 18:35:58 49° E 18:41:44 10° NNE
Cosmos 1633 3.6 18:33:11 10° SSE 18:36:14 25° E 18:39:17 10° NE
HJ-1C 4.0 18:34:34 10° SE 18:37:39 33° ENE 18:40:44 10° N
SL-16 R/B 2.2 18:37:27 10° NNW 18:43:05 61° ENE 18:48:40 10° SSE
Cosmos 1954 Rocket 4.3 18:41:16 10° S 18:46:06 42° ESE 18:51:01 10° NNE
Meteor 1-20 Rocket 4.3 18:40:29 10° S 18:46:17 86° W 18:52:11 10° N
Cosmos 1975 Rocket 4.3 18:43:16 10° NNW 18:47:23 44° W 18:51:28 10° SSW
Okean 1 3.3 18:46:01 10° N 18:50:03 63° E 18:54:04 10° SSE
Cosmos 44 Rocket 3.6 18:46:21 10° NW 18:51:02 64° WSW 18:55:37 10° SSE
Cosmos 1340 3.3 18:48:06 10° NNE 18:51:34 33° ENE 18:53:13 23° ESE
Tiangong 2 2.0 18:51:24 10° NW 18:54:15 33° NNE 18:54:54 29° NE
CENTAUR R/B 3.7 18:48:36 10° NW 18:56:29 63° WSW 19:04:43 10° SSE
CZ-2D R/B 4.0 18:57:59 30° ENE 18:57:59 30° ENE 19:01:10 10° N
Cosmos 2322 Rocket 2.1 18:56:47 10° NNW 19:02:26 89° WSW 19:08:02 10° SSE
Resurs 01 Rocket 1.5 19:01:47 10° SSE 19:06:08 66° ENE 19:10:30 10° N
Cosmos 1536 Rocket 3.5 19:01:48 10° N 19:06:16 83° E 19:10:44 10° S
Helios 1B rocket 2.9 19:09:41 38° ESE 19:09:41 38° ESE 19:13:09 10° S
SL-19 R/B 4.2 19:05:01 10° SSE 19:10:33 77° ENE 19:16:25 10° NNW
Cosmos 1818 3.6 19:05:09 10° SSW 19:10:35 80° WNW 19:16:04 10° NNE
H-2A R/B 2.6 19:09:04 28° SSE 19:10:51 61° ENE 19:14:31 10° N
Cosmos 2322 4.3 19:06:24 10° N 19:11:39 36° ENE 19:12:40 34° E
Cosmos 44 3.8 19:15:01 10° NW 19:19:15 49° WSW 19:23:23 10° S
Meteor 2-4 Rocket 3.9 19:16:18 10° N 19:21:39 45° ENE 19:22:25 42° E
COSMOS 2428 4.1 19:17:48 10° N 19:21:04 22° NE 19:21:04 22° NE
Meteor 1-11 Rocket 3.7 19:17:29 10° S 19:23:11 80° E 19:29:04 10° N
Cosmos 1741 Rocket 4.4 19:18:33 10° S 19:22:40 40° SE 19:22:40 40° SE
Cosmos 2181 Rocket 3.9 19:17:40 10° N 19:23:56 84° E 19:30:16 10° S
FENGYUN 3A 3.9 19:18:37 10° S 19:23:59 69° WSW 19:29:24 10° NNW
DNEPR-1 R/B 3.6 19:20:59 10° NW 19:25:10 71° WSW 19:27:01 32° SSE
DELTA 2 R/B (1) 3.6 19:20:25 10° WNW 19:26:01 70° N 19:27:32 48° ENE
Resurs 1-3 3.7 19:29:07 10° S 19:33:29 72° WSW 19:37:52 10° NNW
Cosmos 1023 Rocket 4.4 19:32:03 10° SSW 19:37:07 81° WNW 19:41:27 15° NNE
SL-08 ROCKET BODY 4.3 19:31:16 10° S 19:37:22 71° E 19:43:32 10° N
Cosmos 1300 Rocket 4.1 19:33:31 10° SSW 19:37:49 57° W 19:42:12 10° N
Cosmos 2184 Rocket 3.9 19:36:03 10° S 19:42:19 68° E 19:48:34 10° NNE
Cosmos 2074 Rocket 3.8 19:37:35 10° S 19:43:46 73° E 19:50:02 10° N
Cosmos 2219 3.8 19:40:33 10° S 19:44:23 40° SSE 19:44:23 40° SSE
OAO 3 Copernicus 4.3 19:42:42 10° W 19:47:39 71° SSW 19:47:39 71° SSW
Cosmos 2360 Rocket 2.1 19:50:15 10° NNW 19:55:56 84° WSW 19:56:26 74° S
ALOS 4.4 19:53:47 10° SSW 19:57:38 26° W 20:01:31 10° NW
Cosmos 2219 Rocket 4.2 19:55:34 10° N 19:56:49 15° NNE 19:56:49 15° NNE
ATLAS CENTAUR R/B 4.4 19:58:48 10° SSW 20:00:09 16° SSW 20:00:09 16° SSW
Okean 1 Rocket 4.5 20:00:52 10° SSW 20:05:01 37° WNW 20:09:12 10° N
Cosmos 2333 Rocket 4.4 20:13:12 10° N 20:14:12 14° N 20:14:12 14° N
